EHI
0 0 0 0 0 0 0 0 0 0 0 0 0 2 9 19 26 35 45 50 50 49 52 57 61 65 64 60 57 58 58 48 35 28 24 18 11 6 3 2 2 3 4 3
0 0 0 0 0 0 0 0 0 0 0 0 1 3 10 18 25 34 45 52 52 52 56 60 62 63 61 58 56 55 54 47 35 26 22 18 12 7 4 2 1 1 2 2
0 0 0 0 0 0 0 0 0 0 0 0 1 3 9 17 24 34 47 55 56 56 57 60 61 61 58 56 53 51 49 44 35 26 22 20 15 11 7 4 1 0 0 0
0 0 0 0 0 0 0 0 0 0 0 0 0 1 6 14 24 35 49 58 60 58 57 57 57 57 55 52 50 48 44 41 36 29 25 23 20 15 10 7 3 1 0 0
0 0 0 0 0 0 0 0 0 0 0 0 0 0 3 11 22 32 44 55 59 59 56 54 53 52 50 47 46 43 41 39 37 33 29 25 21 16 11 8 5 2 1 0
0 0 0 0 0 0 0 0 0 0 0 0 0 0 2 7 16 25 36 49 56 56 54 53 51 50 48 44 40 39 39 40 38 35 29 23 19 15 12 9 6 3 2 1
0 0 0 0 0 0 0 0 0 0 0 0 0 0 1 4 10 18 31 44 51 52 52 52 50 49 46 42 38 36 37 39 39 36 29 21 15 13 11 8 5 4 2 2
0 0 0 0 0 0 0 0 0 0 0 0 0 0 1 4 8 15 27 38 44 48 51 51 48 45 43 39 37 35 35 37 37 34 28 20 13 11 9 6 4 3 1 1
0 0 0 0 0 0 0 0 0 0 0 0 0 0 2 5 8 13 21 30 37 42 45 45 41 39 37 35 34 34 33 33 33 32 28 22 15 11 7 4 3 2 0 0
0 0 0 0 0 0 0 0 0 0 0 0 0 0 2 5 8 11 15 20 26 31 34 35 34 32 31 32 32 32 31 30 29 29 28 24 17 12 8 5 3 2 0 0
0 0 0 0 0 0 0 0 0 0 0 0 0 0 1 5 8 9 10 13 18 23 27 30 30 29 29 30 30 30 29 26 24 24 25 23 17 12 9 7 4 2 0 0
0 0 0 0 0 0 0 0 0 0 0 0 0 0 1 5 8 8 8 10 15 20 26 29 30 28 28 27 27 26 24 21 19 19 20 18 14 11 9 8 6 3 1 0
0 0 0 0 0 0 0 0 0 0 0 0 0 0 2 5 7 6 6 7 12 18 22 25 27 27 26 25 22 20 18 16 15 15 15 13 11 9 8 7 5 3 1 0
0 0 0 0 0 0 0 0 0 0 0 0 0 0 2 5 6 4 4 5 9 13 16 17 20 23 23 21 18 16 14 11 11 12 10 9 8 8 7 5 4 2 1 0
0 0 0 0 0 0 0 0 0 0 0 0 0 1 2 3 4 5 5 5 8 11 12 11 12 16 19 17 14 13 12 9 8 8 8 7 7 7 6 4 3 1 0 0
0 0 0 0 0 0 0 0 0 0 0 0 0 1 1 2 4 6 7 7 8 10 10 9 9 12 16 14 11 10 10 9 7 7 7 7 6 6 6 4 2 1 0 0
0 0 0 0 0 0 0 0 0 1 1 0 0 1 1 3 4 5 8 9 9 10 9 8 9 12 14 13 9 8 8 9 8 6 6 7 7 7 6 4 2 1 1 1
0 0 0 0 0 0 0 0 1 2 2 1 1 2 3 5 5 6 7 9 11 12 11 9 9 12 14 13 11 9 8 7 6 5 5 6 7 7 6 4 2 1 1 1
0 0 0 0 0 0 0 0 1 2 2 3 4 5 5 8 10 8 7 8 11 13 12 11 11 14 16 15 13 11 7 6 5 4 4 6 7 7 7 6 3 2 3 3
0 0 0 0 0 0 0 0 0 1 2 5 6 6 6 8 9 8 7 8 10 12 12 13 14 17 18 15 13 11 8 7 5 4 4 6 8 9 9 7 5 4 4 5
0 0 0 0 0 0 0 0 0 0 1 3 4 4 5 6 6 7 8 9 11 13 13 14 16 18 18 15 12 11 9 7 6 5 5 6 8 10 10 8 7 6 7 7
0 0 0 0 0 0 0 1 0 0 1 2 1 1 3 5 6 8 9 9 10 13 14 14 14 15 16 16 14 11 9 7 7 5 4 4 6 8 9 9 9 9 9 9
0 0 0 0 0 0 0 1 1 1 1 1 1 0 2 5 7 7 6 6 7 9 11 12 11 11 14 16 16 14 11 9 8 6 4 4 4 7 9 9 10 10 10 10
0 0 0 0 1 0 0 0 1 1 1 1 1 1 2 3 5 5 4 4 5 6 8 9 9 9 10 14 17 16 14 13 10 7 6 6 6 6 7 8 8 8 8 8
0 0 0 0 0 0 0 1 1 1 0 0 1 1 2 2 2 2 2 2 3 5 7 8 8 6 7 11 15 16 16 15 13 10 8 7 6 5 4 4 4 4 4 4
0 0 0 0 0 0 1 2 2 1 0 0 1 1 1 1 2 2 1 1 2 4 6 7 6 5 4 7 12 14 15 16 14 11 9 7 6 4 2 1 1 1 1 1
Wind_Speed
5 4 7 9 8 7 6 7 9 11 9 5 6 6 8 11 13 13 13 13 14 13 10 11 12 13 13 12 12 12 12 11 9 7 6 6 6 5 4 4 6 6 6 5
2 8 10 8 7 8 9 10 11 11 9 4 3 3 6 9 13 15 16 16 16 12 10 11 12 12 13 14 14 13 13 12 10 7 6 5 5 4 4 4 4 5 6 5
11 8 8 10 10 10 11 10 10 9 8 3 3 1 1 3 3 8 13 14 15 17 17 15 14 13 13 13 15 13 13 12 11 9 6 5 4 3 3 4 4 4 5 5
9 12 10 11 13 11 11 12 10 8 3 3 2 3 5 3 2 7 10 12 13 14 14 14 14 14 14 14 13 12 12 11 10 10 9 10 8 6 5 5 4 4 5 5
8 9 12 13 15 13 11 10 7 5 3 0 2 3 6 2 4 7 10 13 14 15 16 16 16 15 14 12 11 11 11 10 10 10 10 10 7 5 4 5 6 5 4 5
10 8 10 13 14 12 10 5 2 3 5 1 3 3 5 5 8 7 8 10 14 15 16 15 13 11 10 10 11 11 11 11 10 11 10 10 10 8 8 7 7 5 3 3
8 11 10 8 8 8 5 4 3 3 3 4 4 3 8 8 7 8 10 10 13 15 15 14 13 12 12 12 12 11 12 11 11 11 10 10 10 10 11 9 8 7 4 4
6 8 9 8 10 8 7 10 9 6 4 4 2 3 7 6 4 4 7 9 12 13 13 14 14 13 13 14 13 13 13 12 12 12 11 10 10 8 7 8 7 7 6 5
7 8 7 8 8 10 6 5 9 8 4 1 3 4 6 3 2 3 6 9 11 13 13 13 13 13 13 14 14 14 14 12 12 12 11 10 9 8 8 8 7 6 5 5
7 5 7 6 3 4 9 8 6 7 6 2 2 3 3 2 2 2 4 6 9 11 12 12 12 12 12 12 12 12 13 13 12 12 11 10 9 9 8 7 8 7 7 7
7 4 6 2 4 6 4 4 6 6 7 7 3 6 6 8 6 6 5 6 8 10 11 11 11 11 11 10 10 11 11 11 10 11 10 10 9 9 9 8 8 8 7 8
6 6 4 5 4 5 6 6 8 7 4 5 5 7 4 6 6 6 4 5 6 8 9 9 9 9 9 10 10 11 11 11 11 11 10 10 9 9 9 9 9 8 8 8
5 5 2 4 4 3 2 3 5 7 6 5 5 5 1 2 3 5 6 6 6 7 7 8 9 10 10 10 10 10 11 11 10 10 10 9 9 9 10 9 9 9 9 9
6 5 7 8 7 3 2 2 5 7 5 5 6 5 2 3 3 4 5 6 8 9 9 8 9 10 10 10 10 10 10 10 10 9 10 10 10 10 10 9 9 9 10 10
5 4 3 4 4 4 3 3 4 4 7 8 8 8 8 8 6 6 6 6 7 8 8 9 9 9 9 10 10 10 10 10 10 9 10 10 10 9 9 9 9 9 10 11
4 4 3 1 1 2 1 1 2 3 4 5 7 4 4 4 3 3 4 5 6 7 8 9 9 9 10 10 10 10 10 10 10 10 10 9 9 9 10 10 10 10 9 9
2 4 4 1 0 3 1 1 1 1 2 6 7 6 5 4 3 4 4 4 6 6 7 8 9 9 10 10 10 11 10 9 10 10 10 9 10 10 10 11 10 10 10 8
3 3 3 3 3 3 5 1 4 5 3 2 5 6 7 6 4 3 3 4 3 4 5 6 6 7 7 8 8 9 9 10 10 10 10 10 10 10 10 9 10 9 8 8
4 5 4 4 4 2 1 1 2 5 2 2 7 7 6 5 5 4 3 2 3 3 3 4 5 6 6 7 8 9 10 10 10 10 10 11 11 10 10 10 10 8 7 7
3 5 5 4 4 4 4 2 0 6 2 2 5 7 6 4 3 1 2 2 3 1 1 2 2 3 5 6 7 9 10 10 10 11 10 10 11 11 11 10 9 6 7 7
3 4 3 3 2 2 2 3 2 4 4 1 3 5 5 4 4 2 1 3 3 2 2 1 2 2 4 6 8 9 9 10 10 8 8 9 10 10 10 8 7 7 7 7
1 2 2 3 3 4 3 2 3 4 3 4 4 3 5 5 5 4 4 4 4 4 4 3 2 1 2 4 7 8 8 8 8 8 8 8 8 8 8 7 7 7 7 7
1 1 2 3 3 2 1 3 3 5 6 4 4 4 6 6 5 4 4 4 4 4 4 4 3 2 1 2 4 6 6 6 7 8 7 7 7 6 6 7 7 6 6 5
2 1 1 3 2 3 5 5 5 6 7 6 5 6 7 7 6 6 5 5 5 5 4 4 4 3 2 1 2 3 4 6 8 8 7 6 6 6 5 4 4 5 5 5
2 1 2 3 1 4 5 5 7 8 8 8 7 7 7 8 7 7 6 5 5 4 4 4 3 3 2 1 1 2 4 6 7 6 6 6 6 6 6 5 3 3 3 4
2 0 2 2 1 2 1 3 6 8 8 8 8 8 7 8 8 8 6 5 5 5 4 4 4 4 3 2 2 2 3 6 7 6 5 5 5 5 6 6 5 7 5 5
Wind_Direction
205 174 219 224 210 211 240 262 272 273 274 259 235 214 191 172 166 171 175 175 176 182 177 169 165 165 163 164 165 168 166 168 164 161 154 151 156 160 157 160 158 157 155 150
221 233 225 219 230 235 246 259 269 281 277 245 216 202 181 176 176 177 178 176 176 173 166 167 165 167 169 169 171 170 170 170 171 169 160 154 150 157 159 155 155 160 155 152
207 230 212 222 234 238 246 238 247 259 290 327 121 11 263 207 173 170 174 174 173 172 171 170 169 168 169 173 175 175 175 172 170 160 142 135 120 120 135 154 163 168 159 153
230 238 231 223 233 227 246 241 237 245 240 277 133 187 260 224 191 168 171 171 172 172 170 169 170 171 175 178 177 172 172 172 168 161 160 160 162 165 173 168 166 168 165 156
230 215 221 230 232 225 234 244 239 236 190 81 11 145 268 220 201 200 181 177 174 171 171 173 176 177 176 174 173 172 168 170 167 167 168 167 165 163 151 153 161 168 170 164
240 242 214 224 238 229 226 247 328 38 76 88 254 166 260 225 209 204 190 183 175 170 172 173 174 168 167 168 169 170 170 172 171 170 172 173 168 164 160 164 170 173 171 171
263 260 248 229 233 243 202 127 43 359 19 243 260 179 242 241 217 194 184 182 176 172 171 169 168 169 170 173 175 174 174 175 176 174 178 179 174 173 174 172 175 173 172 176
217 258 241 221 204 207 198 150 160 185 207 263 320 239 261 263 229 179 161 165 166 169 172 173 174 175 175 177 178 179 179 180 179 180 182 179 175 175 178 176 175 180 181 181
198 242 250 229 206 178 178 172 168 139 150 126 287 291 314 6 52 124 142 150 163 169 171 175 176 178 180 180 182 183 182 182 183 183 180 178 178 178 178 177 174 177 177 177
185 239 265 240 208 186 169 160 110 119 145 189 280 268 245 252 225 157 149 165 170 168 168 172 176 179 183 184 184 182 183 185 184 182 184 183 182 182 179 175 179 178 178 174
180 203 284 294 190 191 151 127 121 127 148 151 199 261 225 198 194 181 176 174 172 167 170 174 175 176 177 177 180 183 186 185 185 185 185 183 184 183 180 182 183 179 176 171
178 159 239 253 241 180 151 159 141 144 174 153 160 254 270 178 174 164 168 170 170 164 165 168 169 169 172 176 179 184 187 187 188 186 184 186 185 183 183 186 186 178 176 175
160 142 161 327 334 14 114 141 139 133 128 147 159 243 296 138 155 164 164 171 163 155 157 163 168 175 180 182 182 186 189 190 188 183 183 185 185 185 187 187 183 179 175 175
132 130 161 192 210 181 153 151 133 121 140 170 194 198 219 198 184 172 166 172 166 163 165 172 176 180 184 185 183 186 190 189 185 183 184 188 191 191 189 185 181 178 175 175
107 135 154 177 187 153 162 166 151 152 171 168 194 183 201 202 185 172 163 164 162 168 172 178 186 185 185 186 186 186 188 186 182 181 187 193 193 188 185 183 182 177 176 179
60 128 131 103 83 95 115 199 179 172 169 154 149 180 207 193 148 125 138 156 168 175 184 188 191 188 189 191 190 187 186 185 179 182 188 188 186 184 184 184 181 177 178 176
25 102 108 184 236 64 309 269 158 176 163 154 167 189 156 138 148 160 153 157 180 184 188 193 195 193 192 192 187 186 186 180 181 185 186 182 183 185 184 183 180 179 179 176
128 95 112 131 98 184 243 288 98 93 55 108 127 143 147 146 143 128 137 148 172 181 192 197 193 193 191 188 184 180 177 179 183 187 188 185 183 184 180 178 181 182 177 179
148 130 112 123 141 213 268 1 109 112 44 51 123 131 129 123 76 43 37 103 150 182 198 201 191 189 182 182 181 173 177 180 183 187 188 186 182 181 180 182 185 182 176 180
71 101 112 120 137 199 235 280 77 95 74 6 122 136 139 121 109 259 341 64 65 64 168 188 171 167 176 184 174 172 180 182 189 190 187 184 181 181 184 185 182 176 176 183
45 57 101 128 147 240 263 294 43 122 204 188 114 127 127 134 164 176 46 54 57 41 28 64 124 151 179 182 173 175 180 190 190 180 176 178 180 183 182 178 173 169 173 175
104 111 133 129 140 243 309 62 119 175 155 109 96 106 106 109 106 93 70 50 44 35 33 45 78 146 166 166 171 175 186 187 171 165 166 173 176 180 177 171 172 171 172 176
25 182 173 164 183 245 65 101 114 123 109 95 92 96 104 100 95 82 74 64 46 51 44 36 45 61 109 140 158 169 181 166 160 157 161 162 164 166 162 166 168 163 167 173
334 348 95 77 58 67 79 83 76 88 94 91 88 86 89 91 86 73 73 66 52 42 40 34 40 56 65 101 146 162 156 153 151 156 160 155 151 152 147 151 159 163 170 175
298 349 71 94 87 55 51 73 92 90 88 87 86 82 88 91 84 78 72 62 54 44 34 37 42 46 51 73 83 118 137 142 145 149 150 144 139 138 128 120 118 146 153 179
342 59 127 157 208 127 109 78 94 92 89 103 100 83 78 85 83 77 71 59 55 50 41 40 37 39 40 63 64 78 133 143 145 146 146 144 137 132 131 127 105 70 86 103